星链-5442 (STARLINK-5442 )

导读

STARLINK-5442是美国太空探索技术公司(SpaceX)开发的星链(Starlink)项目卫星,于2022年12月17日发射升空。作为星链互联网星座的组成部分,它旨在为全球提供高速低延迟卫星互联网服务,尤其覆盖偏远地区和网络基础设施薄弱区域,目前已正常在轨运行。

基本信息
目录编号:
54784
目录名称:
STARLINK-5442
国际标识:
2022-175AC
轨道中心:
EARTH
卫星名称:
星链-5442
卫星全名:
星链-5442 (STARLINK-5442 )
卫星状态:
在轨 (已飞行1367 天)
发射日期:
2022-12-17 UTC
国别 :
美国 (US)
星等 :
--
该卫星已列入 空间交会检测服务 Space Conjunction Data Service (SCDS) ,当前飞行风险评估等级: 无高风险
轨道信息
数据来源 国际轨道数据
星历时间: 2026-09-14T13:28:25+0800
12小时前
查看轨道信息
半长轴: 6840.859km
偏心率: 0.0001089
轨道倾角: 53.160°
近地点辐角 81.092°
升交点赤经 267.184°
平近点角 279.021°
近地点: 461.977km
远地点: 463.467km
周期: 93.848分钟
每日圈数: 15.343939
详细信息
固有亮度:
5
最大亮度:
2.5
卫星平台:
Starlink v1.5
覆盖范围:
全球
运营商:
太空探索技术公司
运营商所在国:
美国
制造商(研发单位):
太空探索技术公司
制造商所在国:
美国
使用方式:
暂无
卫星简介
星链(Starlink)计划是由太空探索技术公司(SpaceX)提出的一个巨型低轨卫星互联网星座项目,计划在2019年至2024年间在太空搭建由约1.2万颗卫星组成的“星链”网络,其中1584颗将部署在地球上空550千米处的近地轨道,并从2020年开始工作。该卫星仍在工作。
2D轨道图
3D轨道图
轨道高度分析图
轨道倾角分析图
轨道综合分析图
查看轨道综合分析图
交会数据列表
事件ID 空间交会对象 最接近时刻(TCA) 交会距离 交会风险概率(CRP) 交会风险指数(CRI) 操作
CDM_260915-170805-478406-345322
2026-09-15T
17:08:59+0000
0.150 km
中距离
8.322931E-4 高风险 0.93
CDM_260910-185405-478406-694021
2026-09-10T
18:54:54+0000
0.580 km
远距离
8.81805E-5 中风险 0.74
CDM_260916-031805-478406-345322
2026-09-16T
03:18:38+0000
0.727 km
远距离
4.912376E-5 中风险 0.69
CDM_260916-232505-478406-694021
2026-09-16T
23:25:29+0000
1.187 km
极远距离
8.721815E-6 低风险 0.54
CDM_260916-162305-478406-945221
2026-09-16T
16:23:01+0000
1.307 km
极远距离
6.469546E-6 低风险 0.51
CDM_260917-005905-478406-694021
2026-09-17T
00:59:16+0000
1.434 km
极远距离
4.609564E-6 低风险 0.48
CDM_260916-092005-478406-945221
2026-09-16T
09:20:57+0000
1.485 km
极远距离
4.247568E-6 低风险 0.48
CDM_260916-074705-478406-945221
2026-09-16T
07:47:10+0000
1.950 km
极远距离
1.937589E-6 低风险 0.41
CDM_260915-153505-478406-345322
2026-09-15T
15:35:12+0000
2.643 km
极远距离
1.092892E-6 低风险 0.36
CDM_260916-175605-478406-945221
2026-09-16T
17:56:48+0000
2.578 km
极远距离
1.090745E-6 低风险 0.36
与全量物体交会距离演化趋势 订阅飞行安全评估服务
与全量物体交会风险概率演化趋势 订阅飞行安全评估服务